LiveATC.Net - Listen to live air traffic control over the Internet!


ICAO: KIPJ  IATA: IPJ   Airport: Lincolnton-Lincoln County Regional Airport
City: Lincolnton   State/Province: North Carolina
Country: United States   Continent: North America
KIPJ METAR Weather: KIPJ 040055Z AUTO 00000KT 10SM CLR 27/19 A2992 RMK AO2 T02670186
KIPJ Flight Activity (FlightAware)
KIPJ Airport Info   (iFlightPlanner)
KIPJ VFR Sectional Chart   (iFlightPlanner) 
KIPJ IFR Low Chart   (iFlightPlanner) 

KIPJ CTAF/Del
Feed Status: UP   Listeners: 0
Listen in your browser - HTML5 player (in browser, HTML5)
Click here to listen with your own player (launches your MP3 player)
Archive Access: KIPJ CTAF/Del
FacilityFrequency
Lincolnton Clearance Delivery124.900
Lincolnton CTAF123.050

NOTICE

Unauthorized use prohibited. See LiveATC.net Terms of Service


Airport/ARTCC Code
Frequency Search
(e.g., 124.400, 128.75)
Site-wide search
 


Browse Feeds
Top 50 Feeds
Coverage Map
Bad Weather Areas

LiveATC FAQ
Offer LiveATC feed
Contact LiveATC.net
Press Inquiries

LiveATC on iPhone
LiveATC on Android

Windows Phone
Windows 8/10

LiveATC Mobile
(Mobile browser)

ATC Audio Archives
Interesting Recordings

LiveATC Forums


Home Page
About LiveATC.net
Make a Donation
Terms of Use
Privacy Policy

Canadian Air Freqs

AIRMETs/SIGMETs

FAA Airport Status
Nat'l Airspace Status
Arrival Demand Charts


Server Software By:
Icecast.org
Liquidsoap